SCP
0 0 0 0 0 0 0 0 0 0 0 0 0 0 0 0 0 -0 0 0 0 0 0 0 0 0 0 0 0 0 0 0 0 -0 0 -0 0 0 0 0 0 0 0 0 0
0 0 0 0 0 0 0 0 0 0 0 0 0 0 0 0 0 0 0 0 0 0 0 0 0 0 0 0 0 0 0 0 0 -0 -0 -0 0 0 0 0 0 0 0 -0 0
0 0 0 0 0 0 0 0 0 0 0 0 0 0 0 0 -0 0 -0 -0 0 0 0 0 0 0 0 0 0 0 0 0 0 -0 0 -0 0 0 0 0 0 0 0 0 0
0 0 0 0 0 0 0 0 0 0 0 0 0 0 0 0 0 0 0 0 0 0 0 0 0 0 0 0 0 0 0 0 0 0 0 0 0 0 0 0 0 0 0 0 0
0 0 0 0 0 0 0 0 0 0 0 0 0 0 -0 0 0 0 0 0 0 0 0 0 0 0 0 0 0 0 0 0 0 0 0 0 0 0 0 0 0 0 0 0 0
0 0 0 0 0 0 0 0 0 0 0 0 0 0 0 0 0 0 0 0 0 0 0 0 0 0 0 0 0 0 0 0 0 0 0 0 0 0 0 0 0 0 0 0 0
0 0 0 0 0 0 0 0 0 0 0 0 0 0 0 0 0 0 0 0 0 0 0 0 0 0 0 0 0 -0 0 0 0 0 0 0 0 0 0 0 0 0 0 0 0
0 0 0 0 0 0 0 0 0 0 0 0 0 0 0 0 0 0 0 0 0 0 0 0 0 0 0 0 0 0 0 0 0 0 0 0 -0 -0 0 0 0 0 0 0 0
0 0 0 0 0 0 0 0 0 0 0 0 0 0 0 0 0 0 0 0 0 0 0 0 0 0 0 0 0 0 0 0 0 0 0 0 -0 0 0 0 0 0 0 0 -0
0 0 0 0 0 0 0 0 0 0 0 0 0 0 0 0 0 0 0 0 0 0 0 0 0 0 0 0 0 0 0 0 0 0 0 -0 -0 0 0 0 0 0 0 0 -0
0 0 0 0 0 0 0 0 0 0 0 0 0 0 0 0 -0 -0 0 0 0 0 0 0 0 0 0 0 0 0 0 0 0 -0 -0 0 -0 -0 0 0 0 0 0 0 0
0 0 0 0 0 0 0 0 0 0 0 0 0 -0 -0 0 0 0 0 0 0 0 0 0 0 0 0 0 0 0 0 0 -0 -0 0 0 0 0 0 0 0 0 0 0 0
0 0 0 0 0 0 0 0 0 -0 0 0 0 0 0 0 0 0 0 0 0 0 0 0 0 0 0 0 0 0 0 0 -0 0 0 0 0 0 0 0 0 0 0 0 0
0 0 0 0 0 0 0 0 0 -0 0 0 0 0 0 0 0 -0 0 0 0 0 0 0 0 0 0 0 0 0 0 0 0 0 0 0 0 0 0 0 -0 -0 0 0 0
0 0 0 0 0 0 0 0 0 0 0 0 0 0 0 0 0 0 0 0 0 0 0 0 0 0 -0 -0 0 0 0 0 0 0 0 0 0 -0 -0 0 0 -0 -0 0 0
0 0 0 0 0 0 0 0 0 0 0 0 0 0 0 0 0 0 0 0 0 0 0 0 0 0 0 0 0 0 0 0 0 0 0 0 0 -0 -0 0 0 0 -0 0 0
0 0 0 0 0 0 0 0 0 0 0 0 0 0 0 0 0 0 0 0 0 0 0 0 -0 0 0 0 0 0 0 0 0 0 -0 0 0 -0 -0 0 -0 0 0 0 0
0 0 0 0 0 0 0 0 0 0 0 0 0 0 0 0 0 0 0 0 -0 0 0 0 -0 0 0 0 0 0 0 0 0 0 0 0 0 -0 0 0 0 0 0 0 0
0 0 0 0 0 0 0 0 0 0 0 0 0 0 0 0 0 0 0 0 0 0 0 0 -0 -0 0 0 0 0 0 0 0 0 0 0 0 -0 0 0 0 0 0 0 0
0 0 0 0 0 0 0 0 0 0 0 0 0 0 0 0 0 0 0 0 0 0 0 0 0 -0 0 0 0 0 0 0 0 0 0 0 0 0 0 0 0 0 0 0 0
0 0 0 0 0 0 0 0 0 0 0 0 0 0 0 0 0 0 0 0 0 0 0 0 0 0 0 0 0 0 0 0 0 0 0 0 0 0 0 0 0 0 0 0 0
0 0 0 0 0 0 0 0 0 0 0 0 0 0 0 0 0 0 0 0 0 0 0 0 0 0 0 0 0 0 0 0 0 0 0 0 0 0 0 0 0 0 0 0 0
0 0 -0 0 0 0 0 0 0 0 0 0 0 0 0 0 0 0 0 0 0 0 0 0 0 0 0 0 0 0 0 0 0 0 0 0 0 0 0 0 0 0 0 0 0
0 0 0 0 0 -0 0 0 0 0 0 0 0 0 0 0 0 0 0 0 0 0 0 -0 0 0 0 0 0 0 0 0 0 0 -0 0 0 0 0 0 0 0 0 0 0
0 0 0 0 0 0 0 0 0 0 0 0 0 0 0 0 0 0 0 0 0 0 0 0 -0 0 0 0 0 -0 0 0 0 0 0 0 0 0 0 0 0 0 0 0 0
0 0 0 0 0 0 0 0 0 0 0 0 0 0 0 0 0 0 0 0 0 0 0 0 0 0 0 0 0 0 0 0 0 0 0 0 0 0 0 0 0 0 0 0 0
0 0 0 -0 0 -0 0 0 0 0 0 0 0 0 0 0 0 0 0 0 0 0 0 0 0 0 0 0 0 0 0 -0 0 0 0 0 0 0 0 0 0 0 0 0 0
Wind_Speed_500mb
32 31 32 33 34 36 38 41 40 39 41 44 42 43 42 48 56 50 58 42 31 29 32 38 32 25 24 39 48 44 17 25 31 32 44 39 6 13 15 16 15 10 25 32 37
32 30 32 33 33 35 36 38 40 39 43 44 45 48 45 50 60 59 23 25 33 24 32 34 42 27 34 28 31 26 15 32 31 41 41 36 21 26 16 22 22 34 16 38 34
31 31 31 32 32 34 35 36 37 40 43 46 47 47 45 48 52 12 13 13 18 36 30 32 34 35 47 52 49 32 35 28 39 68 57 42 32 18 11 9 11 8 49 36 27
28 31 33 38 39 40 39 40 41 40 42 47 48 49 43 39 11 10 2 27 39 25 32 19 28 35 10 27 55 25 46 50 53 78 62 36 47 17 14 12 21 15 29 40 28
27 30 38 42 45 47 44 43 43 42 43 47 48 48 47 15 52 34 19 25 28 21 18 17 27 34 19 19 39 36 38 57 65 71 70 68 29 25 24 28 14 18 31 35 29
36 37 41 45 49 46 47 43 43 41 42 45 46 45 35 21 11 8 25 9 22 25 34 26 28 40 37 32 32 42 42 46 59 57 58 38 23 24 42 34 41 32 35 32 29
38 34 40 45 50 51 49 48 46 43 41 36 37 33 35 69 29 29 27 25 15 23 22 24 28 26 28 16 42 49 35 32 36 42 36 49 22 16 47 43 48 55 48 34 28
40 41 45 49 50 47 46 47 43 37 27 25 30 19 27 23 18 26 11 26 26 27 29 32 31 32 21 21 21 13 17 25 21 25 35 27 32 25 58 56 60 63 47 41 44
39 44 49 53 45 44 45 44 36 25 27 23 23 14 25 14 22 7 15 23 22 30 34 26 25 19 19 7 8 10 9 17 23 24 29 20 33 31 58 59 44 61 52 52 52
44 51 58 53 42 38 36 38 27 19 13 11 6 13 27 13 7 21 12 16 15 16 8 21 13 7 4 2 8 11 11 15 23 35 26 40 41 34 51 41 25 42 39 50 66
49 50 52 48 34 27 34 42 42 10 14 20 21 30 36 31 43 42 28 13 13 23 11 16 8 12 12 16 23 31 29 26 22 25 27 40 45 28 34 28 26 47 50 41 74
46 43 46 45 26 13 26 32 26 20 34 53 66 75 80 63 32 27 24 17 19 12 11 8 14 14 17 25 32 37 36 33 31 31 23 37 34 20 15 15 33 52 58 57 68
43 46 44 36 16 7 20 25 30 39 11 48 29 31 30 29 32 28 24 17 10 12 10 15 13 19 26 21 34 37 30 31 29 39 43 36 29 9 13 18 38 37 74 70 68
38 44 47 31 12 9 7 18 29 36 8 15 12 17 24 13 10 22 29 14 8 6 3 6 11 23 26 33 26 26 34 27 30 24 23 34 20 14 18 31 31 36 42 76 64
37 39 41 20 21 19 23 28 25 21 10 18 16 28 24 17 11 12 32 20 9 12 8 8 9 20 29 34 19 18 32 18 17 19 23 37 9 12 17 16 32 31 48 64 68
31 35 40 11 11 14 25 23 22 2 15 11 18 19 21 27 12 18 20 17 11 13 13 13 15 6 23 20 18 28 25 19 15 5 10 24 14 12 17 22 15 15 52 70 65
34 33 34 29 33 11 19 21 4 9 23 14 12 15 20 13 25 15 12 13 9 6 10 15 31 16 15 16 22 21 6 5 3 7 6 15 24 26 22 26 24 9 35 48 70
36 36 37 34 23 2 20 6 16 19 21 5 5 5 11 19 6 25 22 12 18 11 6 8 9 21 24 28 17 24 19 6 12 6 3 15 13 18 30 38 35 21 21 26 56
36 37 42 15 3 12 12 13 10 12 18 18 12 3 11 27 9 14 24 14 19 24 11 6 9 15 21 17 19 10 13 33 11 11 3 9 15 43 29 32 14 17 20 34 61
36 43 49 26 17 23 11 27 21 26 33 29 9 11 11 9 8 3 4 1 7 11 10 7 17 15 22 31 28 15 5 8 7 7 7 10 21 4 21 15 10 13 13 22 47
28 18 41 8 36 31 17 17 26 55 49 17 14 19 22 17 12 8 9 10 13 11 8 6 6 13 10 16 22 15 10 9 5 14 4 4 8 6 20 31 25 29 47 50 58
22 7 12 21 22 10 20 12 22 51 62 37 17 13 19 24 11 12 11 13 11 5 5 8 7 10 23 18 5 8 23 24 5 3 8 3 10 13 13 22 26 23 40 64 72
11 24 42 25 12 21 13 25 41 41 41 26 17 10 14 17 10 8 10 22 23 7 8 3 5 7 13 7 10 14 34 20 22 12 9 3 7 16 23 20 30 31 53 60 67
10 6 14 37 37 13 20 31 34 49 41 46 29 31 24 16 12 9 12 5 12 11 18 8 6 9 10 19 8 12 17 28 29 5 6 12 2 10 16 21 23 30 41 55 60
14 10 15 6 6 12 26 21 12 27 33 37 24 27 30 20 13 11 16 10 11 29 8 6 4 7 20 29 30 23 19 26 31 30 8 12 14 10 11 17 17 39 48 53 55
13 8 17 24 20 18 31 31 34 30 8 20 23 22 21 21 13 6 10 9 10 12 5 6 5 7 14 14 23 22 26 17 23 21 32 28 14 3 20 13 28 32 46 48 53
34 45 25 17 14 4 10 15 29 24 25 39 13 17 15 13 10 6 8 10 4 4 2 3 7 8 7 13 17 11 14 22 17 22 16 13 10 18 16 11 23 39 45 50 53
Wind_Direction_500mb
321 321 320 315 315 314 310 312 317 319 316 316 317 318 320 317 304 299 285 276 274 285 282 281 280 261 222 228 230 234 251 249 259 265 265 296 205 175 192 158 152 211 243 202 193
321 321 320 320 314 312 312 316 320 319 316 317 315 314 317 317 314 315 311 242 264 290 289 278 262 238 228 229 234 221 235 238 242 261 270 293 237 192 191 185 208 236 215 174 182
319 319 319 317 314 312 313 315 315 314 315 315 315 315 318 317 325 281 65 89 306 310 314 288 249 233 234 230 240 237 236 247 256 261 272 299 298 295 201 196 207 191 158 177 182
317 319 318 316 316 314 315 315 316 315 314 311 313 314 315 311 285 193 239 317 313 318 308 288 219 229 228 230 234 244 246 245 253 263 269 273 285 296 275 237 211 217 184 171 189
315 314 312 313 313 314 316 316 315 315 312 310 311 312 317 278 262 269 306 318 284 296 286 256 238 236 245 247 234 233 240 247 251 255 260 269 265 265 275 290 278 261 192 178 181
309 308 311 313 314 312 312 314 313 311 308 310 310 306 302 272 303 221 290 284 264 264 272 271 246 241 259 259 242 253 254 255 261 262 264 261 265 243 262 265 275 264 198 194 196
318 319 316 314 315 315 316 317 312 310 308 312 307 296 276 264 291 265 266 258 260 263 278 261 299 330 313 318 269 258 258 269 262 269 271 262 271 247 251 245 247 254 207 194 192
319 306 312 315 314 318 321 318 314 307 296 318 305 287 261 323 315 295 280 269 258 248 256 267 301 301 280 288 301 291 269 257 268 262 272 238 255 261 255 241 237 242 204 188 196
318 316 315 315 318 325 325 328 319 291 281 291 295 241 263 310 283 345 298 270 270 250 249 255 275 274 294 286 306 237 252 283 271 252 261 243 255 243 247 256 241 225 192 196 191
313 315 316 316 328 336 341 346 323 290 286 266 231 254 260 230 60 320 298 286 262 238 243 235 265 239 280 274 228 265 279 265 262 267 282 259 259 236 236 232 203 175 201 208 189
313 313 320 320 335 349 357 8 12 338 297 247 236 235 265 254 290 281 255 263 261 229 188 211 207 233 259 254 265 272 275 263 271 285 313 282 270 234 220 220 210 190 200 216 190
321 323 319 327 342 23 7 360 357 324 300 283 262 253 257 259 275 272 239 256 202 226 190 243 232 247 265 293 292 258 264 271 288 290 283 303 292 220 211 215 217 208 206 214 189
315 319 321 330 338 358 351 357 319 323 280 294 246 225 229 220 239 260 223 233 225 216 251 238 206 235 227 255 277 288 250 266 274 298 310 293 285 249 267 278 275 232 211 210 188
311 318 330 333 328 330 11 333 340 329 296 267 211 221 188 186 240 231 211 204 204 236 88 290 319 242 196 225 246 289 284 256 264 281 281 302 286 277 252 251 249 253 205 201 181
306 315 323 327 324 325 328 343 326 325 325 163 150 162 189 185 136 187 186 210 234 145 136 236 264 278 235 233 245 267 315 348 333 324 313 297 271 266 278 269 235 239 226 182 184
304 304 315 285 273 335 332 311 318 258 252 214 145 187 186 206 218 139 160 197 246 177 203 255 155 188 234 249 268 271 332 328 310 287 262 273 280 263 253 262 291 238 215 197 196
298 294 302 300 268 244 342 321 241 227 292 163 195 187 207 240 191 148 153 177 173 165 246 250 237 183 171 247 277 274 291 1 346 234 220 267 270 249 269 262 257 308 161 182 204
293 286 294 291 269 167 322 265 230 256 259 316 139 190 249 277 245 154 158 177 225 239 341 254 314 180 189 217 226 224 191 183 185 262 332 258 245 241 242 240 253 106 102 164 171
296 293 286 281 130 200 256 230 222 231 323 352 341 245 249 250 209 166 177 186 186 186 203 294 247 183 199 219 181 230 231 227 340 244 257 258 263 264 272 242 165 123 112 146 159
300 294 281 254 233 219 227 234 243 300 330 328 306 302 319 35 163 302 91 286 156 91 232 282 284 275 181 215 175 188 92 145 174 234 207 247 242 215 350 147 159 96 108 122 164
297 291 290 260 201 208 226 222 250 270 280 299 311 325 333 340 353 337 85 50 39 21 19 339 253 281 341 220 201 173 213 190 197 257 301 282 297 273 34 42 66 61 57 58 45
274 255 310 241 188 216 231 231 242 274 295 301 297 306 306 323 330 334 358 99 106 14 37 57 296 257 251 173 225 331 202 185 217 202 249 198 265 15 35 51 49 39 52 57 49
255 270 265 264 218 223 250 242 238 261 272 287 286 284 269 286 317 323 310 132 153 124 158 273 323 294 320 137 170 196 248 199 220 264 251 303 273 346 37 26 28 35 56 61 56
264 285 255 228 236 275 242 247 250 243 253 266 286 305 301 289 281 279 296 157 183 113 149 146 189 247 282 309 307 267 276 221 210 211 196 243 333 312 339 342 360 21 68 66 62
223 244 269 287 245 289 286 277 277 277 266 252 254 252 271 282 257 265 272 269 259 138 101 94 228 297 302 294 278 247 243 246 208 218 239 290 217 252 298 329 8 54 55 55 56
224 231 281 297 268 293 294 271 267 257 264 291 255 239 249 262 238 296 32 50 35 51 62 352 271 275 291 337 328 303 279 228 215 180 229 245 146 249 239 252 77 83 68 57 51
239 244 281 274 305 240 256 290 275 272 256 247 240 293 313 338 52 44 2 321 211 126 101 311 343 349 270 342 316 281 254 219 192 208 217 249 117 179 94 110 85 73 74 70 57
Wind_Speed_850mb
32 31 32 33 34 36 38 41 40 39 41 44 42 43 42 48 56 50 58 42 31 29 32 38 32 25 24 39 48 44 17 25 31 32 44 39 6 13 15 16 15 10 25 32 37
32 30 32 33 33 35 36 38 40 39 43 44 45 48 45 50 60 59 23 25 33 24 32 34 42 27 34 28 31 26 15 32 31 41 41 36 21 26 16 22 22 34 16 38 34
31 31 31 32 32 34 35 36 37 40 43 46 47 47 45 48 52 12 13 13 18 36 30 32 34 35 47 52 49 32 35 28 39 68 57 42 32 18 11 9 11 8 49 36 27
28 31 33 38 39 40 39 40 41 40 42 47 48 49 43 39 11 10 2 27 39 25 32 19 28 35 10 27 55 25 46 50 53 78 62 36 47 17 14 12 21 15 29 40 28
27 30 38 42 45 47 44 43 43 42 43 47 48 48 47 15 52 34 19 25 28 21 18 17 27 34 19 19 39 36 38 57 65 71 70 68 29 25 24 28 14 18 31 35 29
36 37 41 45 49 46 47 43 43 41 42 45 46 45 35 21 11 8 25 9 22 25 34 26 28 40 37 32 32 42 42 46 59 57 58 38 23 24 42 34 41 32 35 32 29
38 34 40 45 50 51 49 48 46 43 41 36 37 33 35 69 29 29 27 25 15 23 22 24 28 26 28 16 42 49 35 32 36 42 36 49 22 16 47 43 48 55 48 34 28
40 41 45 49 50 47 46 47 43 37 27 25 30 19 27 23 18 26 11 26 26 27 29 32 31 32 21 21 21 13 17 25 21 25 35 27 32 25 58 56 60 63 47 41 44
39 44 49 53 45 44 45 44 36 25 27 23 23 14 25 14 22 7 15 23 22 30 34 26 25 19 19 7 8 10 9 17 23 24 29 20 33 31 58 59 44 61 52 52 52
44 51 58 53 42 38 36 38 27 19 13 11 6 13 27 13 7 21 12 16 15 16 8 21 13 7 4 2 8 11 11 15 23 35 26 40 41 34 51 41 25 42 39 50 66
49 50 52 48 34 27 34 42 42 10 14 20 21 30 36 31 43 42 28 13 13 23 11 16 8 12 12 16 23 31 29 26 22 25 27 40 45 28 34 28 26 47 50 41 74
46 43 46 45 26 13 26 32 26 20 34 53 66 75 80 63 32 27 24 17 19 12 11 8 14 14 17 25 32 37 36 33 31 31 23 37 34 20 15 15 33 52 58 57 68
43 46 44 36 16 7 20 25 30 39 11 48 29 31 30 29 32 28 24 17 10 12 10 15 13 19 26 21 34 37 30 31 29 39 43 36 29 9 13 18 38 37 74 70 68
38 44 47 31 12 9 7 18 29 36 8 15 12 17 24 13 10 22 29 14 8 6 3 6 11 23 26 33 26 26 34 27 30 24 23 34 20 14 18 31 31 36 42 76 64
37 39 41 20 21 19 23 28 25 21 10 18 16 28 24 17 11 12 32 20 9 12 8 8 9 20 29 34 19 18 32 18 17 19 23 37 9 12 17 16 32 31 48 64 68
31 35 40 11 11 14 25 23 22 2 15 11 18 19 21 27 12 18 20 17 11 13 13 13 15 6 23 20 18 28 25 19 15 5 10 24 14 12 17 22 15 15 52 70 65
34 33 34 29 33 11 19 21 4 9 23 14 12 15 20 13 25 15 12 13 9 6 10 15 31 16 15 16 22 21 6 5 3 7 6 15 24 26 22 26 24 9 35 48 70
36 36 37 34 23 2 20 6 16 19 21 5 5 5 11 19 6 25 22 12 18 11 6 8 9 21 24 28 17 24 19 6 12 6 3 15 13 18 30 38 35 21 21 26 56
36 37 42 15 3 12 12 13 10 12 18 18 12 3 11 27 9 14 24 14 19 24 11 6 9 15 21 17 19 10 13 33 11 11 3 9 15 43 29 32 14 17 20 34 61
36 43 49 26 17 23 11 27 21 26 33 29 9 11 11 9 8 3 4 1 7 11 10 7 17 15 22 31 28 15 5 8 7 7 7 10 21 4 21 15 10 13 13 22 47
28 18 41 8 36 31 17 17 26 55 49 17 14 19 22 17 12 8 9 10 13 11 8 6 6 13 10 16 22 15 10 9 5 14 4 4 8 6 20 31 25 29 47 50 58
22 7 12 21 22 10 20 12 22 51 62 37 17 13 19 24 11 12 11 13 11 5 5 8 7 10 23 18 5 8 23 24 5 3 8 3 10 13 13 22 26 23 40 64 72
11 24 42 25 12 21 13 25 41 41 41 26 17 10 14 17 10 8 10 22 23 7 8 3 5 7 13 7 10 14 34 20 22 12 9 3 7 16 23 20 30 31 53 60 67
10 6 14 37 37 13 20 31 34 49 41 46 29 31 24 16 12 9 12 5 12 11 18 8 6 9 10 19 8 12 17 28 29 5 6 12 2 10 16 21 23 30 41 55 60
14 10 15 6 6 12 26 21 12 27 33 37 24 27 30 20 13 11 16 10 11 29 8 6 4 7 20 29 30 23 19 26 31 30 8 12 14 10 11 17 17 39 48 53 55
13 8 17 24 20 18 31 31 34 30 8 20 23 22 21 21 13 6 10 9 10 12 5 6 5 7 14 14 23 22 26 17 23 21 32 28 14 3 20 13 28 32 46 48 53
34 45 25 17 14 4 10 15 29 24 25 39 13 17 15 13 10 6 8 10 4 4 2 3 7 8 7 13 17 11 14 22 17 22 16 13 10 18 16 11 23 39 45 50 53
Wind_Direction_850mb
321 321 320 315 315 314 310 312 317 319 316 316 317 318 320 317 304 299 285 276 274 285 282 281 280 261 222 228 230 234 251 249 259 265 265 296 205 175 192 158 152 211 243 202 193
321 321 320 320 314 312 312 316 320 319 316 317 315 314 317 317 314 315 311 242 264 290 289 278 262 238 228 229 234 221 235 238 242 261 270 293 237 192 191 185 208 236 215 174 182
319 319 319 317 314 312 313 315 315 314 315 315 315 315 318 317 325 281 65 89 306 310 314 288 249 233 234 230 240 237 236 247 256 261 272 299 298 295 201 196 207 191 158 177 182
317 319 318 316 316 314 315 315 316 315 314 311 313 314 315 311 285 193 239 317 313 318 308 288 219 229 228 230 234 244 246 245 253 263 269 273 285 296 275 237 211 217 184 171 189
315 314 312 313 313 314 316 316 315 315 312 310 311 312 317 278 262 269 306 318 284 296 286 256 238 236 245 247 234 233 240 247 251 255 260 269 265 265 275 290 278 261 192 178 181
309 308 311 313 314 312 312 314 313 311 308 310 310 306 302 272 303 221 290 284 264 264 272 271 246 241 259 259 242 253 254 255 261 262 264 261 265 243 262 265 275 264 198 194 196
318 319 316 314 315 315 316 317 312 310 308 312 307 296 276 264 291 265 266 258 260 263 278 261 299 330 313 318 269 258 258 269 262 269 271 262 271 247 251 245 247 254 207 194 192
319 306 312 315 314 318 321 318 314 307 296 318 305 287 261 323 315 295 280 269 258 248 256 267 301 301 280 288 301 291 269 257 268 262 272 238 255 261 255 241 237 242 204 188 196
318 316 315 315 318 325 325 328 319 291 281 291 295 241 263 310 283 345 298 270 270 250 249 255 275 274 294 286 306 237 252 283 271 252 261 243 255 243 247 256 241 225 192 196 191
313 315 316 316 328 336 341 346 323 290 286 266 231 254 260 230 60 320 298 286 262 238 243 235 265 239 280 274 228 265 279 265 262 267 282 259 259 236 236 232 203 175 201 208 189
313 313 320 320 335 349 357 8 12 338 297 247 236 235 265 254 290 281 255 263 261 229 188 211 207 233 259 254 265 272 275 263 271 285 313 282 270 234 220 220 210 190 200 216 190
321 323 319 327 342 23 7 360 357 324 300 283 262 253 257 259 275 272 239 256 202 226 190 243 232 247 265 293 292 258 264 271 288 290 283 303 292 220 211 215 217 208 206 214 189
315 319 321 330 338 358 351 357 319 323 280 294 246 225 229 220 239 260 223 233 225 216 251 238 206 235 227 255 277 288 250 266 274 298 310 293 285 249 267 278 275 232 211 210 188
311 318 330 333 328 330 11 333 340 329 296 267 211 221 188 186 240 231 211 204 204 236 88 290 319 242 196 225 246 289 284 256 264 281 281 302 286 277 252 251 249 253 205 201 181
306 315 323 327 324 325 328 343 326 325 325 163 150 162 189 185 136 187 186 210 234 145 136 236 264 278 235 233 245 267 315 348 333 324 313 297 271 266 278 269 235 239 226 182 184
304 304 315 285 273 335 332 311 318 258 252 214 145 187 186 206 218 139 160 197 246 177 203 255 155 188 234 249 268 271 332 328 310 287 262 273 280 263 253 262 291 238 215 197 196
298 294 302 300 268 244 342 321 241 227 292 163 195 187 207 240 191 148 153 177 173 165 246 250 237 183 171 247 277 274 291 1 346 234 220 267 270 249 269 262 257 308 161 182 204
293 286 294 291 269 167 322 265 230 256 259 316 139 190 249 277 245 154 158 177 225 239 341 254 314 180 189 217 226 224 191 183 185 262 332 258 245 241 242 240 253 106 102 164 171
296 293 286 281 130 200 256 230 222 231 323 352 341 245 249 250 209 166 177 186 186 186 203 294 247 183 199 219 181 230 231 227 340 244 257 258 263 264 272 242 165 123 112 146 159
300 294 281 254 233 219 227 234 243 300 330 328 306 302 319 35 163 302 91 286 156 91 232 282 284 275 181 215 175 188 92 145 174 234 207 247 242 215 350 147 159 96 108 122 164
297 291 290 260 201 208 226 222 250 270 280 299 311 325 333 340 353 337 85 50 39 21 19 339 253 281 341 220 201 173 213 190 197 257 301 282 297 273 34 42 66 61 57 58 45
274 255 310 241 188 216 231 231 242 274 295 301 297 306 306 323 330 334 358 99 106 14 37 57 296 257 251 173 225 331 202 185 217 202 249 198 265 15 35 51 49 39 52 57 49
255 270 265 264 218 223 250 242 238 261 272 287 286 284 269 286 317 323 310 132 153 124 158 273 323 294 320 137 170 196 248 199 220 264 251 303 273 346 37 26 28 35 56 61 56
264 285 255 228 236 275 242 247 250 243 253 266 286 305 301 289 281 279 296 157 183 113 149 146 189 247 282 309 307 267 276 221 210 211 196 243 333 312 339 342 360 21 68 66 62
223 244 269 287 245 289 286 277 277 277 266 252 254 252 271 282 257 265 272 269 259 138 101 94 228 297 302 294 278 247 243 246 208 218 239 290 217 252 298 329 8 54 55 55 56
224 231 281 297 268 293 294 271 267 257 264 291 255 239 249 262 238 296 32 50 35 51 62 352 271 275 291 337 328 303 279 228 215 180 229 245 146 249 239 252 77 83 68 57 51
239 244 281 274 305 240 256 290 275 272 256 247 240 293 313 338 52 44 2 321 211 126 101 311 343 349 270 342 316 281 254 219 192 208 217 249 117 179 94 110 85 73 74 70 57